Barrow, AK

10:25 AM AKDT on September 27, 2016 (GMT -0800)
Nuiqsut

Weather History for PAQT - October, 2013

Change the Weather History Date:

Thursday, October 10, 2013

  Actual Average (PAKU) Record (PAKU)
Temperature  
Mean Temperature 22 °F -  
Max Temperature 30 °F 21 °F 48 °F (2006)
Min Temperature 15 °F 15 °F -7 °F (1991)
Degree Days  
Heating Degree Days 42    
Moisture  
Dew Point 26 °F    
Average Humidity 95    
Maximum Humidity 100    
Minimum Humidity 89    
Precipitation  
Precipitation 0.00 in - - ()
Sea Level Pressure  
Sea Level Pressure 29.53 in    
Wind  
Wind Speed 17 mph (SW)    
Max Wind Speed 22 mph    
Max Gust Speed -    
Visibility 8 miles    
Events Snow    
Averages and records for this station are not official NWS values.
T = Trace of Precipitation, MM = Missing Value Source: NWS Daily Summary

Daily Weather History Graph

Daily Weather History Graph

Search for Another Location

Airport or City:

Trip Planner

Search our weather history database for the weather conditions in past years. The results will help you decide how hot, cold, wet, or windy it might be!

Date:

Astronomy

Oct. 10, 2013 Rise Set
Actual Time 8:58 AM AKDT 6:40 PM AKDT
Civil Twilight 7:56 AM AKDT 7:43 PM AKDT
Nautical Twilight 6:44 AM AKDT 8:54 PM AKDT
Astronomical Twilight 5:27 AM AKDT 10:10 PM AKDT
Moon 5:59 PM AKDT (10/10) 8:34 PM AKDT (10/10)
Length of Visible Light 11h 46m
Length of Day
9h 42m
Waxing Crescent, 37% of the Moon is Illuminated
Oct 10
Waxing Crescent
Oct 11
First Quarter
Oct 18
Full
Oct 26
Last Quarter
Nov 3
New

Hourly Weather History & Observations

Time (AKDT) Temp. Windchill Dew Point Humidity Pressure Visibility Wind Dir Wind Speed Gust Speed Precip Events Conditions
12:53 AM 30.0 °F 18.3 °F 28.9 °F 96% 29.41 in 10.0 mi WSW 17.3 mph - 0.00 in   Overcast
1:18 AM 30.2 °F 18.5 °F 28.4 °F 93% 29.42 in 2.0 mi WSW 17.3 mph - 0.00 in Snow Light Snow
1:25 AM 30.2 °F 18.5 °F 30.2 °F 100% 29.42 in 1.2 mi WSW 17.3 mph - 0.00 in Snow Light Snow
1:32 AM 30.2 °F 18.1 °F 30.2 °F 100% 29.42 in 3.0 mi WSW 18.4 mph - 0.00 in Snow Light Snow
1:51 AM 30.2 °F 18.1 °F 30.2 °F 100% 29.42 in 2.5 mi WSW 18.4 mph - 0.00 in Snow Light Snow
1:53 AM 30.0 °F 17.9 °F 30.0 °F 100% 29.43 in 2.5 mi WSW 18.4 mph - 0.00 in Snow Light Snow
2:02 AM 30.2 °F 18.1 °F 30.2 °F 100% 29.43 in 3.0 mi WSW 18.4 mph - 0.00 in Snow Light Snow
2:30 AM 30.2 °F 17.4 °F 30.2 °F 100% 29.43 in 2.5 mi WSW 20.7 mph - 0.00 in Snow Light Snow
2:38 AM 30.2 °F 17.4 °F 30.2 °F 100% 29.44 in 4.0 mi WSW 20.7 mph - 0.00 in Snow Light Snow
2:51 AM 30.2 °F 18.1 °F 30.2 °F 100% 29.44 in 4.0 mi WSW 18.4 mph - 0.00 in Snow Light Snow
2:53 AM 30.0 °F 17.9 °F 30.0 °F 100% 29.44 in 4.0 mi WSW 18.4 mph - 0.00 in Snow Light Snow
3:12 AM 30.2 °F 18.1 °F 30.2 °F 100% 29.45 in 3.0 mi WSW 18.4 mph - 0.00 in Snow Light Snow
3:53 AM 30.9 °F 18.1 °F 30.0 °F 96% 29.45 in 9.0 mi WSW 21.9 mph - 0.00 in   Overcast
4:53 AM 30.0 °F 17.2 °F 28.9 °F 96% 29.47 in 6.0 mi WSW 20.7 mph - 0.00 in   Overcast
5:53 AM 28.9 °F 15.4 °F 28.9 °F 100% 29.48 in 10.0 mi WSW 21.9 mph - 0.00 in   Overcast
6:53 AM 28.9 °F 15.4 °F 28.0 °F 96% 29.50 in 10.0 mi WSW 21.9 mph - 0.00 in   Overcast
7:09 AM 28.4 °F 15.1 °F 26.6 °F 93% 29.50 in 10.0 mi WSW 20.7 mph - 0.00 in   Overcast
7:53 AM 28.0 °F 15.7 °F 26.1 °F 92% 29.52 in 10.0 mi WSW 17.3 mph - 0.00 in   Overcast
8:18 AM 26.6 °F 14.3 °F 24.8 °F 93% 29.52 in 10.0 mi SW 16.1 mph - N/A   Overcast
8:40 AM 26.6 °F 13.4 °F 24.8 °F 93% 29.52 in 10.0 mi WSW 18.4 mph - N/A   Overcast
8:51 AM 26.6 °F 13.1 °F 24.8 °F 93% 29.52 in 10.0 mi WSW 19.6 mph - N/A   Overcast
8:53 AM 26.1 °F 12.7 °F 25.0 °F 96% 29.52 in 10.0 mi WSW 18.4 mph - N/A   Overcast
9:37 AM 26.6 °F 13.8 °F 24.8 °F 93% 29.53 in 10.0 mi SW 17.3 mph - 0.00 in   Overcast
9:53 AM 26.1 °F 13.6 °F 24.1 °F 92% 29.54 in 10.0 mi SW 16.1 mph - 0.00 in   Overcast
10:53 AM 27.0 °F 14.3 °F 25.0 °F 92% 29.55 in 9.0 mi SW 17.3 mph - 0.00 in   Overcast
11:51 AM 28.4 °F 15.8 °F 26.6 °F 93% 29.56 in 6.0 mi SW 18.4 mph - 0.00 in Snow Light Snow
11:53 AM 28.0 °F 16.1 °F 26.1 °F 92% 29.56 in 6.0 mi WSW 16.1 mph - 0.00 in Snow Light Snow
12:53 PM 28.0 °F 15.7 °F 26.1 °F 92% 29.57 in 10.0 mi WSW 17.3 mph - 0.00 in   Overcast
1:20 PM 28.4 °F 16.6 °F 26.6 °F 93% 29.58 in 10.0 mi WSW 16.1 mph - 0.00 in   Overcast
1:53 PM 27.0 °F 14.7 °F 25.0 °F 92% 29.59 in 10.0 mi SW 16.1 mph - 0.00 in   Overcast
2:44 PM 26.6 °F 15.2 °F 24.8 °F 93% 29.59 in 10.0 mi SW 13.8 mph - N/A   Overcast
2:53 PM 27.0 °F 16.1 °F 25.0 °F 92% 29.59 in 10.0 mi SW 12.7 mph - N/A   Overcast
3:05 PM 28.4 °F 18.0 °F 26.6 °F 93% 29.58 in 10.0 mi SW 12.7 mph - N/A   Overcast
3:53 PM 27.0 °F 16.7 °F 24.1 °F 89% 29.59 in 10.0 mi SSW 11.5 mph - N/A   Overcast
4:07 PM 26.6 °F 15.7 °F 24.8 °F 93% 29.59 in 10.0 mi SW 12.7 mph - N/A   Overcast
4:53 PM 27.0 °F 17.3 °F 24.1 °F 89% 29.59 in 10.0 mi SSW 10.4 mph - N/A   Overcast
5:53 PM 27.0 °F 16.7 °F 25.0 °F 92% 29.60 in 10.0 mi SSW 11.5 mph - 0.00 in   Overcast
6:29 PM 26.6 °F 16.8 °F 24.8 °F 93% 29.60 in 2.5 mi SSW 10.4 mph - 0.00 in Snow Light Snow
6:41 PM 26.6 °F 17.5 °F 24.8 °F 93% 29.60 in 4.0 mi SSW 9.2 mph - 0.00 in Snow Light Snow
6:53 PM 26.1 °F 15.6 °F 25.0 °F 96% 29.61 in 7.0 mi SSW 11.5 mph - 0.00 in   Overcast
7:53 PM 25.0 °F 15.5 °F 24.1 °F 96% 29.61 in 10.0 mi SW 9.2 mph - 0.00 in   Overcast
8:53 PM 26.1 °F 16.2 °F 24.1 °F 92% 29.62 in 10.0 mi SW 10.4 mph - 0.00 in   Overcast
9:53 PM 24.1 °F 19.7 °F 23.0 °F 96% 29.63 in 10.0 mi WSW 3.5 mph - 0.00 in   Overcast
10:51 PM 17.6 °F 9.3 °F 17.6 °F 100% 29.63 in 10.0 mi South 5.8 mph - N/A   Overcast
10:53 PM 18.0 °F 9.8 °F 17.1 °F 96% 29.64 in 10.0 mi South 5.8 mph - N/A   Overcast
11:25 PM 15.8 °F 10.2 °F 15.8 °F 100% 29.64 in 10.0 mi South 3.5 mph - N/A   Scattered Clouds
11:53 PM 15.1 °F 9.4 °F 14.0 °F 95% 29.65 in 10.0 mi SSW 3.5 mph - N/A   Clear